Flag for Canada Weather past 2 weeks in Corner Brook, Newfoundland and Labrador, Canada

Now
61 °F

Passing clouds.


Feels Like: 61 °F
Forecast: 55 / 65 °F
Wind: 7 mph from West

Location: Deer Lake

Current Time: Aug 30, 2015 at 3:54:43 AM

Latest Report: Aug 30, 2015 at 3:30 AM


Visibility: 15 mi

Pressure: 29.93 "Hg

Humidity: 83%

Dew point: 55 °F

Location of Corner BrookLocation

Historic Weather in Corner Brook — Graph

°F

Corner Brook temperature yesterday

Maximum temperature yesterday: 73 °F (at 11:30 AM)
Minimum temperature yesterday: 59 °F (at 11:30 PM)
Average temperature yesterday: 65 °F

Past Weeks' High & Low Weather Summary

 TemperatureHumidityPressure
High84 °F (Aug 18, 2:30 PM)100% (Aug 15, 2:30 AM)30.31 "Hg (Aug 15, 2:30 AM)
Low52 °F (Aug 15, 5:30 AM)42% (Aug 23, 3:30 PM)29.72 "Hg (Aug 28, 1:30 PM)
Average68 °F79%30.03 "Hg
* Reported Aug 15 2:30 AM — Aug 30 2:30 AM, Corner Brook, Weather by CustomWeather, © 2015

Note: Actual official high and low records may vary slightly from our data, if they occured in-between our weather recording intervals... More about our weather records

Advertising

Corner Brook weather history for previous 24 hours

 ConditionsComfort  
Time TempWeatherWind HumidityBarometerVisibility
2:30 AM
Sun, Aug 30
57 °FPassing clouds.No wind94%29.94 "Hg15 mi
1:30 AM59 °FPartly cloudy.3 mph82%29.95 "Hg15 mi
12:30 AM59 °FPassing clouds.3 mph82%29.96 "Hg15 mi
11:30 PM
Sat, Aug 29
59 °FPartly cloudy.5 mph82%29.96 "Hg15 mi
10:30 PM61 °FPassing clouds.6 mph77%29.97 "Hg15 mi
9:30 PM61 °FPassing clouds.8 mph77%29.97 "Hg15 mi
8:30 PM63 °FScattered clouds.12 mph73%29.95 "Hg15 mi
7:30 PM64 °FScattered clouds.12 mph64%29.93 "Hg15 mi
6:30 PM66 °FScattered clouds.9 mph64%29.91 "Hg15 mi
5:30 PM68 °FScattered clouds.15 mph56%29.92 "Hg15 mi
4:30 PM70 °FScattered clouds.17 mph57%29.90 "Hg15 mi
3:30 PM72 °FBroken clouds.9 mph57%29.89 "Hg15 mi
2:30 PM70 °FBroken clouds.13 mph60%29.89 "Hg15 mi
1:30 PM72 °FBroken clouds.16 mph61%29.88 "Hg15 mi
12:30 PM73 °FBroken clouds.14 mph57%29.88 "Hg15 mi
11:30 AM73 °FBroken clouds.17 mph61%29.87 "Hg15 mi
10:30 AM68 °FPartly sunny.15 mph73%29.88 "Hg15 mi
9:30 AM66 °FBroken clouds.15 mph73%29.89 "Hg15 mi
8:30 AM63 °FBroken clouds.10 mph83%29.89 "Hg15 mi
7:30 AM63 °FPartly sunny.10 mph83%29.88 "Hg15 mi
6:30 AM61 °FPartly cloudy.6 mph88%29.87 "Hg15 mi
5:30 AM63 °FPassing clouds.5 mph83%29.87 "Hg15 mi
4:30 AM61 °FPassing clouds.2 mph88%29.86 "Hg15 mi
3:30 AM63 °FPassing clouds.6 mph83%29.86 "Hg15 mi
Weather by CustomWeather, © 2015

See weather overviewHow to use our weather pages